Location: Unspecified
(0.0000°N, 0.0000°E)
Time: 06:31:31
(UTC+00:00)

Transit 2A Rocket - Pass Details

Date: 21 November 2019
Orbit: 594 x 909 km, 66.7° (Epoch: 11 December)

Event Time Altitude Azimuth Distance (km) Brightness Sun altitude
Rises 19:12:41 0° 196° (SSW) 3,389 8.9 -20.3°
Reaches altitude 10° 19:15:15 10° 194° (SSW) 2,408 8.0 -20.9°
Maximum altitude 19:20:45 72° 110° (ESE) 803 4.9 -22.2°
Enters shadow 19:21:54 53° 46° (NE) 922 5.0 -22.5°
